This is the latest recevied weather packets stored in our database for station/object YD2APR-13. If no packets are shown the sender has not sent any weather packets the latest 10 day(s).
| Time | Temp. | Humidity | Pressure | Rain* | Wind** | Luminosity | Snow |
|---|---|---|---|---|---|---|---|
| 1778126741 | 32.78° C | 46% | 1016.1 hPa | - | - | - | - |
| 1778126141 | 32.22° C | 47% | 1016.2 hPa | - | - | - | - |
| 1778125541 | 32.22° C | 47% | 1016.3 hPa | - | - | - | - |
| 1778124941 | 31.67° C | 48% | 1016.3 hPa | - | - | - | - |
| 1778124341 | 31.67° C | 49% | 1016.4 hPa | - | - | - | - |
| 1778123740 | 31.67° C | 49% | 1016.4 hPa | - | - | - | - |
| 1778123140 | 31.67° C | 49% | 1016.4 hPa | - | - | - | - |
| 1778122540 | 31.67° C | 52% | 1016.5 hPa | - | - | - | - |
| 1778121941 | 31.67° C | 56% | 1016.5 hPa | - | - | - | - |
| 1778121341 | 30.56° C | 59% | 1016.4 hPa | - | - | - | - |
| 1778120742 | 30° C | 61% | 1016.4 hPa | - | - | - | - |
| 1778120190 | 29.44° C | 63% | 1016.5 hPa | - | - | - | - |
| 1778120141 | 29.44° C | 63% | 1016.5 hPa | - | - | - | - |
| 1778119575 | 28.89° C | 64% | 1016.6 hPa | - | - | - | - |
| 1778119540 | 28.89° C | 64% | 1016.6 hPa | - | - | - | - |
| 1778118940 | 28.33° C | 66% | 1016.5 hPa | - | - | - | - |
| 1778118340 | 27.78° C | 67% | 1016.5 hPa | - | - | - | - |
| 1778117790 | 27.78° C | 69% | 1016.4 hPa | - | - | - | - |
| 1778117740 | 27.78° C | 69% | 1016.4 hPa | - | - | - | - |
| 1778117141 | 27.78° C | 69% | 1016.4 hPa | - | - | - | - |
| 1778116540 | 27.78° C | 68% | 1016.4 hPa | - | - | - | - |
| 1778115975 | 27.78° C | 68% | 1016.4 hPa | - | - | - | - |
| 1778115940 | 27.78° C | 68% | 1016.4 hPa | - | - | - | - |
| 1778115340 | 27.78° C | 68% | 1016.3 hPa | - | - | - | - |
| 1778114740 | 27.78° C | 68% | 1016.2 hPa | - | - | - | - |
* Rain since midnight (hover to see other rain measurements)
** Current wind speed in m/s (hover to see current wind gust speed)